Guthrie, OK

9:41 AM CDT on July 20, 2017 (GMT -0500)
Guthrie Municipal

Weather History for KGOK - July, 2012

Change the Weather History Date:

Wednesday, July 25, 2012

  Actual Average Record
Temperature  
Mean Temperature 94 °F -  
Max Temperature 106 °F 97 °F 108 °F (1977)
Min Temperature 84 °F 71 °F 61 °F (2004)
Cooling Degree Days 30    
Growing Degree Days 44 (Base 50)    
Moisture  
Dew Point 63 °F    
Average Humidity 38    
Maximum Humidity 53    
Minimum Humidity 24    
Precipitation  
Precipitation 0.00 in - - ()
Sea Level Pressure  
Sea Level Pressure 29.78 in    
Wind  
Wind Speed 14 mph (South)    
Max Wind Speed 21 mph    
Max Gust Speed 30 mph    
Visibility 10 miles    
Events      
Averages and records for this station are not official NWS values.
T = Trace of Precipitation, MM = Missing Value Source: NWS Daily Summary

Daily Weather History Graph

Daily Weather History Graph

Search for Another Location

Airport or City:

Trip Planner

Search our weather history database for the weather conditions in past years. The results will help you decide how hot, cold, wet, or windy it might be!

Date:

Astronomy

Jul. 25, 2012 Rise Set
Actual Time 6:32 AM CDT 8:39 PM CDT
Civil Twilight 6:03 AM CDT 9:08 PM CDT
Nautical Twilight 5:28 AM CDT 9:43 PM CDT
Astronomical Twilight 4:50 AM CDT 10:20 PM CDT
Moon 1:22 PM CDT (7/25) No Moon Set
Length of Visible Light 15h 04m
Length of Day
14h 07m
Waxing Crescent, 42% of the Moon is Illuminated
Jul 25
Waxing Crescent
Jul 26
First Quarter
Aug 1
Full
Aug 9
Last Quarter
Aug 17
New

Hourly Weather History & Observations

Time (CDT) Temp. Heat Index Dew Point Humidity Pressure Visibility Wind Dir Wind Speed Gust Speed Precip Events Conditions
12:53 AM 87.1 °F 87.8 °F 63.0 °F 44% 29.86 in 10.0 mi South 11.5 mph - N/A   Clear
1:53 AM 86.0 °F 87.3 °F 64.0 °F 48% 29.85 in 10.0 mi South 12.7 mph - N/A   Clear
2:53 AM 86.0 °F 87.3 °F 64.0 °F 48% 29.84 in 10.0 mi South 15.0 mph 19.6 mph N/A   Clear
3:53 AM 84.9 °F 86.1 °F 64.0 °F 49% 29.83 in 10.0 mi South 11.5 mph - N/A   Clear
4:53 AM 84.0 °F 85.4 °F 64.0 °F 51% 29.82 in 10.0 mi South 11.5 mph - N/A   Scattered Clouds
5:53 AM 84.9 °F 86.1 °F 64.0 °F 49% 29.82 in 10.0 mi South 13.8 mph - N/A   Partly Cloudy
6:53 AM 84.0 °F 85.8 °F 64.9 °F 53% 29.83 in 10.0 mi South 10.4 mph - N/A   Clear
7:53 AM 86.0 °F 88.2 °F 66.0 °F 51% 29.83 in 10.0 mi SSW 13.8 mph 21.9 mph N/A   Clear
8:53 AM 88.0 °F 90.7 °F 66.9 °F 49% 29.83 in 10.0 mi SSW 16.1 mph 25.3 mph N/A   Clear
9:53 AM 91.0 °F 93.8 °F 66.0 °F 44% 29.83 in 10.0 mi SSW 16.1 mph 24.2 mph N/A   Clear
10:53 AM 93.9 °F 97.0 °F 66.0 °F 40% 29.82 in 10.0 mi SSW 17.3 mph 28.8 mph N/A   Clear
11:53 AM 98.1 °F 101.2 °F 64.9 °F 34% 29.81 in 10.0 mi SSW 19.6 mph 24.2 mph N/A   Clear
12:53 PM 100.0 °F 103.0 °F 64.0 °F 31% 29.80 in 10.0 mi SSW 16.1 mph 27.6 mph N/A   Clear
1:53 PM 102.0 °F 103.9 °F 62.1 °F 27% 29.77 in 10.0 mi SW 15.0 mph 28.8 mph N/A   Clear
2:53 PM 104.0 °F 106.0 °F 62.1 °F 25% 29.76 in 10.0 mi SSW 18.4 mph 26.5 mph N/A   Partly Cloudy
3:53 PM 104.0 °F 105.3 °F 61.0 °F 24% 29.75 in 10.0 mi South 20.7 mph 29.9 mph N/A   Clear
4:53 PM 105.1 °F 107.1 °F 61.0 °F 24% 29.73 in 10.0 mi SSW 15.0 mph 25.3 mph N/A   Partly Cloudy
5:53 PM 104.0 °F 105.3 °F 61.0 °F 24% 29.70 in 10.0 mi South 19.6 mph 27.6 mph N/A   Clear
6:53 PM 100.9 °F 102.7 °F 62.1 °F 28% 29.69 in 10.0 mi South 16.1 mph 24.2 mph N/A   Clear
7:53 PM 99.0 °F 99.5 °F 61.0 °F 28% 29.69 in 10.0 mi South 16.1 mph 24.2 mph N/A   Clear
8:53 PM 95.0 °F 95.2 °F 61.0 °F 32% 29.71 in 10.0 mi South 9.2 mph - N/A   Clear
9:53 PM 93.0 °F 94.6 °F 64.0 °F 38% 29.73 in 10.0 mi South 15.0 mph 20.7 mph N/A   Clear
10:53 PM 91.9 °F 93.3 °F 64.0 °F 39% 29.73 in 10.0 mi South 13.8 mph - N/A   Clear
11:53 PM 91.0 °F 91.9 °F 63.0 °F 39% 29.74 in 10.0 mi South 15.0 mph 21.9 mph N/A   Clear